Location: Columbus
(29.5618°N, 96.6770°W)
Time: 15:37:37
(UTC-05:00)

Daily predictions for brighter satellites

Satellite Brightness Start Highest point End
(mag) Time Altitude Azimuth Time Altitude Azimuth Time Altitude Azimuth
BREEZE-M DEB (TANK) 4.1 19:19:57 10° NW 19:23:39 61° NE 19:36:14 10° SE
Cosmos 2056 Rocket 3.9 19:27:16 10° NNW 19:32:42 76° WSW 19:38:03 10° S
Meteor 1-24 Rocket 3.7 19:29:17 10° N 19:34:49 88° E 19:40:08 10° S
Cosmos 1470 4.3 19:33:00 10° SE 19:35:21 16° E 19:37:43 10° NE
USA 215 3.7 19:30:47 10° NE 19:36:55 43° SE 19:43:02 10° SSW
ASTRO E2 2.7 19:33:26 10° WNW 19:37:29 86° SSW 19:41:32 10° ESE
ATLAS 5 CENTAUR R/B 3.9 19:34:46 10° WSW 19:38:49 28° NW 19:43:07 10° N
Helios 1B rocket 3.6 19:36:04 10° NE 19:39:20 22° E 19:42:35 10° SSE
Okean 3 Rocket 4.1 19:37:08 10° NNW 19:41:39 66° W 19:46:07 10° S
Cosmos 1544 3.6 19:39:24 10° SSE 19:42:50 37° E 19:46:18 10° NNE
SAR-Lupe-4 4.1 19:40:13 10° SE 19:43:29 35° ENE 19:46:46 10° N
Meteosat 1 Rocket2 4.4 19:39:08 10° WSW 19:48:13 69° S 19:53:33 13° E
Meteor 2-12 Rocket 4.5 19:44:28 10° S 19:50:31 63° E 19:56:35 10° NNE
Resurs 01 Rocket 2.8 19:47:12 10° ESE 19:50:41 23° ENE 19:54:08 10° NNE
ATLAS CENTAUR R/B 4.2 19:51:40 10° WNW 19:54:05 16° WSW 19:56:24 10° SSW
SJ-6B 3.0 19:52:14 10° SSE 19:56:05 49° ENE 20:00:00 10° N
Cosmos 1484 Rocket 3.2 19:54:55 10° S 19:58:42 67° W 20:02:35 10° NNW
ALOS 3.8 19:58:30 15° E 19:59:49 17° ENE 20:02:42 10° NNE
COSMO-SKYMED 1 4.3 19:56:14 10° N 20:00:14 37° WNW 20:04:13 10° SW
MSX 4.5 19:55:14 10° S 20:00:52 60° W 20:06:32 10° NNW
Cosmos 1076 Rocket 3.8 20:01:25 10° N 20:05:45 71° W 20:10:04 10° S
Cosmos-2242 3.5 20:06:08 10° SSW 20:10:27 65° W 20:14:49 10° N
SL-19 R/B 4.4 20:07:03 10° SSE 20:12:39 82° WSW 20:18:34 10° NNW
ASTEX 1 3.9 20:09:29 10° NNE 20:13:54 34° E 20:18:18 10° SSE
Meteor 1-29 3.1 20:10:46 10° NNE 20:14:10 48° E 20:17:31 10° S
Nadezhda 4 Rocket 4.0 20:09:06 10° N 20:15:12 56° E 20:21:13 10° SSE
ISS -0.1 20:16:15 10° NW 20:16:43 10° NNW 20:17:13 10° NNW
Cosmos 1766 Rocket 4.0 20:12:38 10° NNW 20:16:56 64° W 20:21:11 10° S
SEDSat Delta rocket 4.0 20:10:46 10° WNW 20:17:16 89° SSW 20:21:45 23° ESE
Cosmos 1092 Rocket 4.1 20:20:17 10° N 20:26:14 48° E 20:32:06 10° SSE
GPS 2-04 Rocket1 3.8 20:23:50 10° WNW 20:26:54 29° N 20:28:01 24° NNE
CENTAUR R/B 2.9 20:22:51 10° SW 20:28:39 61° WNW 20:35:06 10° NNE
Cosmos 1452 Rocket 4.3 20:23:40 10° NNW 20:28:46 53° WSW 20:33:50 10° S
NOAA 12 4.3 20:23:46 10° S 20:29:00 75° WSW 20:34:17 10° NNW
Cosmos 2251 Rocket 3.6 20:25:17 10° S 20:30:18 49° ESE 20:35:20 10° NNE
Cosmos 494 Rocket 4.4 20:26:00 10° SSE 20:30:45 37° E 20:33:54 19° NE
Meteor 1-21 Rocket 4.4 20:29:49 10° NNW 20:35:19 71° W 20:40:49 10° S
Cosmos 1634 Rocket 3.9 20:29:57 10° S 20:36:06 63° E 20:42:13 10° NNE
Mugunghwa Rocket 4.4 20:30:00 10° WSW 20:36:28 54° SSE 20:39:35 32° ESE
Helios 1A 2.9 20:40:48 20° SSE 20:43:43 88° E 20:47:57 10° NNW
Cosmos 1842 Rocket 4.1 20:39:39 10° SSW 20:43:54 57° W 20:48:10 10° N
Cosmos 1943 Rocket 3.9 20:42:14 10° NNE 20:44:22 17° NE 20:44:22 17° NE
Cosmos 1420 Rocket 4.3 20:41:40 10° NNW 20:46:57 70° WSW 20:52:13 10° S
Cosmos 1500 Rocket 3.5 20:44:02 10° N 20:48:30 89° WSW 20:51:23 22° S
OAO 3 Rocket 3.0 20:46:40 10° WNW 20:51:25 77° NNE 20:51:59 66° ENE
Spot 2 Rocket 3.8 20:48:20 10° S 20:53:19 65° WSW 20:58:20 10° NNW
Cosmos 1943 4.2 20:48:04 10° SW 20:53:26 45° WNW 20:58:49 10° N
Cosmos 2369 Rocket 2.1 20:52:27 10° NNW 20:58:05 64° ENE 20:58:45 59° ESE
Cosmos 2195 Rocket 4.5 20:52:20 10° N 20:58:34 58° E 20:59:48 49° SE
BREEZE-M DEB (TANK) 4.1 20:46:24 10° NW 21:01:43 62° SW 21:03:52 35° SSE
Cosmos 1674 4.2 21:06:57 10° NNW 21:10:31 35° W 21:11:58 26° SW
Cosmos 2263 4.5 21:06:43 10° NNW 21:11:27 52° NNE 21:11:27 52° NNE
OAO 1 4.4 21:07:17 10° WSW 21:12:48 80° NNW 21:12:57 79° N
USA 215 4.3 21:13:45 10° NNE 21:19:48 42° NW 21:25:50 10° WSW
Delta 168 4.3 21:16:28 10° W 21:20:10 41° SSW 21:20:10 41° SSW
Resurs 01 Rocket 3.9 21:23:26 10° SSW 21:26:59 23° W 21:30:32 10° NW
ALOS 3.7 21:37:03 36° W 21:37:03 36° W 21:41:12 10° NNW
BREEZE-M DEB (TANK) 4.4 21:49:44 10° SW 22:07:06 62° NW 22:07:36 60° NNW
